GW4054 Weather Reports


time (UTC)temp
C
wind
direction
speed
KPH
gust
KPH
rain 1hr
cm
rain 24hr
cm
rain mn
cm
humidity
%
barometer
mb
20260506121927 15 165 3.2 11.3 0.00 0.03 0.00 83 1010.4
20260506120356 14 169 4.8 11.3 0.00 0.03 0.00 83 1010.7
20260506115012 14 167 3.2 8.0 0.00 0.03 0.00 84 1010.5
20260506113442 13 167 3.2 8.0 0.00 0.03 0.00 85 1010.3
20260506111915 13 168 4.8 9.7 0.00 0.03 0.00 86 1010.4
20260506110415 13 168 4.8 11.3 0.00 0.03 0.00 87 1010.5
20260506104829 12 167 1.6 9.7 0.00 0.03 0.00 87 1010.4
20260506103441 12 168 3.2 8.0 0.00 0.03 0.00 87 1010.3
20260506103332 12 168 3.2 8.0 0.00 0.03 0.00 87 1010.3
20260506101924 12 168 3.2 9.7 0.00 0.03 0.00 87 1010.3
20260506100412 12 169 3.2 9.7 0.00 0.03 0.00 87 1010.3
20260506094958 12 169 3.2 11.3 0.00 0.03 0.00 87 1010.3
20260506094832 12 169 3.2 11.3 0.00 0.03 0.00 87 1010.3
20260506093507 12 169 1.6 9.7 0.00 0.03 0.00 87 1010.2
20260506091937 12 169 3.2 8.0 0.00 0.03 0.00 87 1010.3
20260506090509 12 169 1.6 4.8 0.00 0.03 0.00 86 1010.4
20260506090320 12 169 1.6 4.8 0.00 0.03 0.00 86 1010.4
20260506084847 12 169 1.6 8.0 0.00 0.03 0.00 86 1010.5
20260506083449 12 169 1.6 6.4 0.00 0.03 0.00 86 1010.6
20260506081854 12 169 1.6 9.7 0.00 0.03 0.00 86 1010.6
20260506080353 12 169 1.6 9.7 0.00 0.03 0.00 85 1010.6
20260506073444 13 168 3.2 9.7 0.00 0.03 0.00 85 1010.8
20260506071957 13 168 1.6 8.0 0.00 0.03 0.00 85 1010.9
20260506061926 13 165 3.2 11.3 0.00 0.03 0.00 83 1010.8
20260506060510 13 165 3.2 16.1 0.00 0.03 0.00 83 1010.8
20260506060404 13 165 3.2 16.1 0.00 0.03 0.00 83 1010.8
20260506050510 13 163 1.6 19.3 0.00 0.03 0.00 81 1011.1
20260506050352 13 163 1.6 19.3 0.00 0.03 0.00 81 1011.1
20260506044932 13 163 4.8 17.7 0.00 0.03 0.00 81 1011.2
20260506043509 13 169 4.8 17.7 0.00 0.03 0.00 80 1011.1
20260506043405 13 169 4.8 17.7 0.00 0.03 0.00 80 1011.1
20260506041858 14 169 3.2 17.7 0.00 0.03 0.00 80 1011.0
20260506040451 14 166 4.8 16.1 0.00 0.03 0.00 79 1011.2
20260506040345 14 166 4.8 16.1 0.00 0.03 0.00 79 1011.2
20260506034920 15 167 4.8 16.1 0.00 0.03 0.03 79 1011.3
20260506033422 15 170 4.8 14.5 0.00 0.03 0.03 79 1011.1
20260506032019 15 172 6.4 16.1 0.00 0.03 0.03 78 1011.0
20260506031858 15 172 6.4 16.1 0.00 0.03 0.03 78 1011.0
20260506030447 15 171 6.4 16.1 0.00 0.03 0.03 78 1011.2
20260506024918 15 167 6.4 16.1 0.00 0.03 0.03 77 1011.2
20260506023350 15 166 4.8 12.9 0.00 0.03 0.03 77 1011.3
20260506022003 15 166 4.8 16.1 0.00 0.03 0.03 75 1011.1
20260506021835 15 166 4.8 16.1 0.00 0.03 0.03 75 1011.1
20260506020403 15 172 4.8 16.1 0.00 0.03 0.03 74 1011.2
20260506014910 16 171 4.8 14.5 0.00 0.03 0.03 73 1011.0
20260506013527 16 170 4.8 16.1 0.00 0.03 0.03 71 1010.8
20260506011925 16 170 3.2 12.9 0.00 0.03 0.03 70 1010.6
20260506010438 17 170 6.4 22.5 0.00 0.03 0.03 69 1010.5
20260506005001 17 173 4.8 11.3 0.00 0.03 0.03 68 1010.4
20260506003448 17 169 4.8 11.3 0.00 0.03 0.03 68 1010.3
20260506002002 17 165 4.8 12.9 0.00 0.03 0.03 67 1010.2
20260506001843 17 165 4.8 12.9 0.00 0.03 0.03 67 1010.2
20260506000453 17 170 4.8 12.9 0.00 0.03 0.03 67 1010.0
20260505234851 17 171 6.4 12.9 0.00 0.03 0.03 66 1010.0
20260505233505 17 169 3.2 14.5 0.00 0.03 0.03 67 1009.6
20260505233354 17 169 3.2 14.5 0.00 0.03 0.03 67 1009.6
20260505231927 17 169 6.4 20.9 0.00 0.03 0.03 67 1009.5
20260505230532 17 169 4.8 16.1 0.00 0.03 0.03 65 1009.2
20260505230410 17 169 4.8 16.1 0.00 0.03 0.03 65 1009.2
20260505224949 18 172 8.0 20.9 0.03 0.03 0.03 64 1009.1
20260505223407 18 170 4.8 19.3 0.03 0.03 0.03 62 1009.2
20260505221953 19 171 6.4 22.5 0.03 0.03 0.03 61 1008.9
20260505220414 19 166 6.4 22.5 0.03 0.03 0.03 61 1009.0
20260505214936 20 141 8.0 17.7 0.00 0.00 0.00 60 1009.0
20260505214833 20 141 8.0 17.7 0.00 0.00 0.00 60 1009.0
20260505213514 20 141 4.8 17.7 0.00 0.00 0.00 60 1008.9
20260505213322 20 141 4.8 17.7 0.00 0.00 0.00 60 1008.9
20260505211914 19 140 6.4 22.5 0.00 0.00 0.00 61 1008.8
20260505210436 20 126 11.3 22.5 0.00 0.00 0.00 60 1008.8
20260505204931 20 135 6.4 19.3 0.00 0.00 0.00 60 1008.9
20260505203354 21 137 6.4 17.7 0.00 0.00 0.00 58 1008.9
20260505202016 21 139 6.4 25.7 0.00 0.00 0.00 58 1008.9
20260505201825 21 139 6.4 25.7 0.00 0.00 0.00 58 1008.9
20260505200441 22 139 6.4 22.5 0.00 0.00 0.00 55 1009.0
20260505200335 22 139 6.4 22.5 0.00 0.00 0.00 55 1009.0
20260505194953 22 141 4.8 12.9 0.00 0.00 0.00 57 1009.1
20260505194823 22 141 4.8 12.9 0.00 0.00 0.00 57 1009.1
20260505193428 22 141 6.4 14.5 0.00 0.00 0.00 58 1009.2
20260505191922 21 141 4.8 17.7 0.00 0.00 0.00 58 1009.6
20260505190422 21 143 4.8 11.3 0.00 0.00 0.00 60 1009.7
20260505184914 21 143 6.4 14.5 0.00 0.00 0.00 60 1010.0
20260505183521 21 143 6.4 12.9 0.00 0.00 0.00 61 1010.1
20260505183413 21 143 6.4 12.9 0.00 0.00 0.00 61 1010.1
20260505181936 21 143 4.8 17.7 0.00 0.00 0.00 62 1010.2
20260505181833 21 143 4.8 17.7 0.00 0.00 0.00 62 1010.2
20260505180427 21 142 4.8 12.9 0.00 0.00 0.00 64 1010.2
20260505174914 20 141 3.2 12.9 0.00 0.00 0.00 63 1010.4
20260505173400 21 141 4.8 14.5 0.00 0.00 0.00 63 1010.6
20260505172020 21 142 3.2 12.9 0.00 0.00 0.00 60 1010.6
20260505171835 21 142 3.2 12.9 0.00 0.00 0.00 60 1010.6
20260505170414 21 142 6.4 14.5 0.00 0.00 0.00 59 1010.6
20260505164925 21 141 3.2 11.3 0.00 0.00 0.00 59 1010.5
20260505163510 22 141 3.2 14.5 0.00 0.00 0.00 59 1010.9
20260505163402 22 141 3.2 14.5 0.00 0.00 0.00 59 1010.9
20260505162003 21 141 6.4 14.5 0.00 0.00 0.00 57 1011.0
20260505161851 21 141 6.4 14.5 0.00 0.00 0.00 57 1011.0
20260505160420 22 141 3.2 11.3 0.00 0.00 0.00 59 1011.0
20260505153348 21 141 1.6 12.9 0.00 0.00 0.00 60 1011.2
20260505152028 20 141 4.8 11.3 0.00 0.00 0.00 60 1011.4
20260505151906 20 141 4.8 11.3 0.00 0.00 0.00 60 1011.4
20260505150532 20 141 4.8 11.3 0.00 0.00 0.00 62 1011.7
20260505150337 20 141 4.8 11.3 0.00 0.00 0.00 62 1011.7
20260505140405 19 139 3.2 8.0 0.00 0.00 0.00 63 1011.3
20260505124950 17 140 1.6 8.0 0.00 0.00 0.00 72 1011.2
20260505123507 16 140 3.2 6.4 0.00 0.00 0.00 74 1011.0
20260505123350 16 140 3.2 6.4 0.00 0.00 0.00 74 1011.0